Time,TemperatureF,DewpointF,PressureIn,WindDirection,WindDirectionDegrees,WindSpeedMPH,WindSpeedGustMPH,Humidity,HourlyPrecipIn,Conditions,Clouds,dailyrainin,SoftwareType,DateUTC
2013-02-08 00:02:00,31.0,29.0,-100.00,NNE,20,0.0,0.0,91,0.00,,,-99.99,,2013-02-08 05:02:00,
2013-02-08 00:12:00,31.0,29.0,-100.00,NNE,20,0.0,0.0,91,0.00,,,-99.99,,2013-02-08 05:12:00,
2013-02-08 00:22:00,31.0,29.0,-100.00,ENE,60,0.0,0.0,92,0.00,,,-99.99,,2013-02-08 05:22:00,
2013-02-08 00:32:00,31.0,29.0,-100.00,NE,55,0.0,0.0,92,0.00,,,-99.99,,2013-02-08 05:32:00,
2013-02-08 00:42:00,31.0,29.0,-100.00,NW,325,0.0,0.0,93,0.00,,,-99.99,,2013-02-08 05:42:00,
2013-02-08 00:52:00,31.0,30.0,-100.00,North,355,0.0,0.0,95,0.00,,,-99.99,,2013-02-08 05:52:00,
2013-02-08 01:02:00,31.0,30.0,-100.00,ESE,120,0.0,0.0,96,0.00,,,-99.99,,2013-02-08 06:02:00,
2013-02-08 01:11:00,31.0,29.0,-100.00,NW,325,0.0,0.0,94,0.00,,,-99.99,,2013-02-08 06:11:00,
2013-02-08 01:21:00,32.0,31.0,-100.00,East,95,0.0,2.0,97,0.00,,,-99.99,,2013-02-08 06:21:00,
2013-02-08 01:32:00,33.0,31.0,-100.00,SE,135,0.0,1.0,94,0.00,,,-99.99,,2013-02-08 06:32:00,
2013-02-08 01:42:00,33.0,32.0,-100.00,NW,315,0.0,1.0,96,0.00,,,-99.99,,2013-02-08 06:42:00,
2013-02-08 01:51:00,34.0,33.0,-100.00,NNE,30,0.0,4.0,94,0.00,,,-99.99,,2013-02-08 06:51:00,
2013-02-08 02:01:00,33.0,31.0,-100.00,SE,140,0.0,0.0,92,0.00,,,-99.99,,2013-02-08 07:01:00,
2013-02-08 02:11:00,33.0,31.0,-100.00,North,5,0.0,0.0,91,0.00,,,-99.99,,2013-02-08 07:11:00,
2013-02-08 02:21:00,32.0,31.0,-100.00,NE,35,0.0,0.0,92,0.00,,,-99.99,,2013-02-08 07:21:00,
2013-02-08 02:32:00,32.0,30.0,-100.00,SW,220,0.0,0.0,92,0.00,,,-99.99,,2013-02-08 07:32:00,
2013-02-08 02:42:00,32.0,30.0,-100.00,SE,130,0.0,0.0,94,0.00,,,-99.99,,2013-02-08 07:42:00,
2013-02-08 02:51:00,31.0,30.0,-100.00,North,355,0.0,1.0,94,0.00,,,-99.99,,2013-02-08 07:51:00,
2013-02-08 03:01:00,32.0,31.0,-100.00,NW,325,0.0,0.0,96,0.00,,,-99.99,,2013-02-08 08:01:00,
2013-02-08 03:12:00,33.0,-99.9,-100.00,WNW,290,0.0,0.0,-999,0.00,,,-99.99,,2013-02-08 08:12:00,
2013-02-08 03:21:00,33.0,33.0,-100.00,NE,40,0.0,0.0,97,0.00,,,-99.99,,2013-02-08 08:21:00,
2013-02-08 03:32:00,33.0,33.0,-100.00,NNE,30,0.0,2.0,97,0.00,,,-99.99,,2013-02-08 08:32:00,
2013-02-08 03:42:00,33.0,-99.9,-100.00,WNW,285,0.0,1.0,-999,0.00,,,-99.99,,2013-02-08 08:42:00,
2013-02-08 03:52:00,33.0,32.0,-100.00,SSW,205,0.0,0.0,97,0.00,,,-99.99,,2013-02-08 08:52:00,
2013-02-08 04:03:00,33.0,33.0,-100.00,SE,125,0.0,0.0,97,0.00,,,-99.99,,2013-02-08 09:03:00,
2013-02-08 04:11:00,34.0,-99.9,-100.00,SW,230,0.0,1.0,-999,0.00,,,-99.99,,2013-02-08 09:11:00,
2013-02-08 04:22:00,34.0,-99.9,-100.00,NW,310,0.0,0.0,-999,0.00,,,-99.99,,2013-02-08 09:22:00,
2013-02-08 04:32:00,35.0,-99.9,-100.00,ENE,75,0.0,0.0,-999,0.00,,,-99.99,,2013-02-08 09:32:00,
2013-02-08 04:42:00,35.0,35.0,-100.00,East,85,0.0,0.0,97,0.00,,,-99.99,,2013-02-08 09:42:00,
2013-02-08 04:52:00,36.0,35.0,-100.00,NNE,20,0.0,1.0,93,0.00,,,-99.99,,2013-02-08 09:52:00,
2013-02-08 05:01:00,37.0,35.0,-100.00,NE,35,0.0,1.0,92,0.00,,,-99.99,,2013-02-08 10:01:00,
2013-02-08 05:11:00,38.0,36.0,-100.00,NNE,15,0.0,0.0,93,0.00,,,-99.99,,2013-02-08 10:11:00,
2013-02-08 05:22:00,39.0,37.0,-100.00,NNE,30,0.0,1.0,91,0.55,,,-99.99,,2013-02-08 10:22:00,
2013-02-08 05:32:00,41.0,37.0,-100.00,South,170,1.0,3.0,85,0.55,,,-99.99,,2013-02-08 10:32:00,
2013-02-08 05:42:00,41.0,37.0,-100.00,South,170,0.0,2.0,83,0.55,,,-99.99,,2013-02-08 10:42:00,
2013-02-08 05:51:00,41.0,36.0,-100.00,SSW,200,0.0,2.0,81,0.00,,,-99.99,,2013-02-08 10:51:00,
2013-02-08 06:01:00,42.0,37.0,-100.00,SW,215,1.0,3.0,82,0.55,,,-99.99,,2013-02-08 11:01:00,
2013-02-08 06:11:00,41.0,37.0,-100.00,South,180,3.0,7.0,83,0.55,,,-99.99,,2013-02-08 11:11:00,
2013-02-08 06:21:00,42.0,37.0,-100.00,SSW,205,2.0,9.0,85,2.24,,,-99.99,,2013-02-08 11:21:00,
2013-02-08 06:32:00,41.0,38.0,-100.00,South,190,1.0,6.0,88,2.83,,,-99.99,,2013-02-08 11:32:00,
2013-02-08 06:42:00,41.0,39.0,-100.00,SSW,200,2.0,7.0,91,1.69,,,-99.99,,2013-02-08 11:42:00,
2013-02-08 06:52:00,41.0,39.0,-100.00,West,280,2.0,7.0,93,2.24,,,-99.99,,2013-02-08 11:52:00,
2013-02-08 07:02:00,40.0,-99.9,-100.00,West,260,2.0,6.0,-999,1.10,,,-99.99,,2013-02-08 12:02:00,
2013-02-08 07:11:00,40.0,-99.9,-100.00,WSW,245,1.0,5.0,-999,2.83,,,-99.99,,2013-02-08 12:11:00,
2013-02-08 07:22:00,41.0,-99.9,-100.00,WSW,250,2.0,7.0,-999,0.55,,,-99.99,,2013-02-08 12:22:00,
2013-02-08 07:33:00,40.0,-99.9,-100.00,WSW,240,1.0,4.0,-999,0.55,,,-99.99,,2013-02-08 12:33:00,
2013-02-08 07:42:00,40.0,-99.9,-100.00,SW,230,2.0,6.0,-999,1.10,,,-99.99,,2013-02-08 12:42:00,
2013-02-08 07:53:00,41.0,-99.9,-100.00,WSW,240,4.0,9.0,-999,1.10,,,-99.99,,2013-02-08 12:53:00,
2013-02-08 08:02:00,40.0,-99.9,-100.00,WNW,285,7.0,16.0,-999,0.55,,,-99.99,,2013-02-08 13:02:00,
2013-02-08 08:12:00,39.0,-99.9,-100.00,WNW,285,7.0,16.0,-999,0.55,,,-99.99,,2013-02-08 13:12:00,
2013-02-08 08:22:00,39.0,-99.9,-100.00,West,270,9.0,14.0,-999,0.00,,,-99.99,,2013-02-08 13:22:00,
2013-02-08 08:33:00,38.0,-99.9,-100.00,West,270,12.0,19.0,-999,0.00,,,-99.99,,2013-02-08 13:33:00,
2013-02-08 08:43:00,38.0,-99.9,-100.00,West,265,11.0,22.0,-999,0.00,,,-99.99,,2013-02-08 13:43:00,
2013-02-08 08:52:00,37.0,-99.9,-100.00,WNW,285,11.0,21.0,-999,0.00,,,-99.99,,2013-02-08 13:52:00,
2013-02-08 09:02:00,37.0,-99.9,-100.00,West,280,9.0,16.0,-999,0.00,,,-99.99,,2013-02-08 14:02:00,
2013-02-08 09:12:00,37.0,-99.9,-100.00,WNW,285,9.0,18.0,-999,0.00,,,-99.99,,2013-02-08 14:12:00,
2013-02-08 09:22:00,37.0,-99.9,-100.00,WNW,285,7.0,19.0,-999,0.55,,,-99.99,,2013-02-08 14:22:00,
2013-02-08 09:33:00,36.0,-99.9,-100.00,West,260,9.0,19.0,-999,0.00,,,-99.99,,2013-02-08 14:33:00,
2013-02-08 09:42:00,36.0,-99.9,-100.00,West,275,7.0,17.0,-999,0.00,,,-99.99,,2013-02-08 14:42:00,
2013-02-08 09:53:00,36.0,-99.9,-100.00,West,275,10.0,17.0,-999,0.00,,,-99.99,,2013-02-08 14:53:00,
2013-02-08 10:02:00,36.0,-99.9,-100.00,WNW,290,10.0,19.0,-999,0.00,,,-99.99,,2013-02-08 15:02:00,
2013-02-08 10:12:00,36.0,-99.9,-100.00,WNW,300,7.0,13.0,-999,0.00,,,-99.99,,2013-02-08 15:12:00,
2013-02-08 10:22:00,36.0,34.0,-100.00,WSW,255,7.0,17.0,95,0.00,,,-99.99,,2013-02-08 15:22:00,
2013-02-08 10:32:00,35.0,34.0,-100.00,WNW,285,11.0,19.0,93,0.00,,,-99.99,,2013-02-08 15:32:00,
2013-02-08 10:42:00,36.0,34.0,-100.00,West,280,7.0,12.0,91,0.00,,,-99.99,,2013-02-08 15:42:00,
2013-02-08 10:52:00,36.0,33.0,-100.00,NW,305,4.0,13.0,88,0.00,,,-99.99,,2013-02-08 15:52:00,
2013-02-08 11:02:00,36.0,33.0,-100.00,WNW,285,10.0,18.0,88,0.00,,,-99.99,,2013-02-08 16:02:00,
2013-02-08 11:11:00,36.0,33.0,-100.00,WNW,290,9.0,15.0,88,0.00,,,-99.99,,2013-02-08 16:11:00,
2013-02-08 11:22:00,36.0,32.0,-100.00,West,270,11.0,21.0,87,0.00,,,-99.99,,2013-02-08 16:22:00,
2013-02-08 11:32:00,36.0,32.0,-100.00,West,260,7.0,25.0,87,0.00,,,-99.99,,2013-02-08 16:32:00,
2013-02-08 11:42:00,36.0,31.0,-100.00,West,265,12.0,24.0,84,0.00,,,-99.99,,2013-02-08 16:42:00,
2013-02-08 11:52:00,36.0,31.0,-100.00,West,275,6.0,16.0,83,0.00,,,-99.99,,2013-02-08 16:52:00,
2013-02-08 12:04:00,35.0,31.0,-100.00,WNW,300,10.0,19.0,82,0.00,,,-99.99,,2013-02-08 17:04:00,
2013-02-08 12:12:00,35.0,31.0,-100.00,WNW,285,9.0,17.0,83,0.00,,,-99.99,,2013-02-08 17:12:00,
2013-02-08 12:23:00,35.0,30.0,-100.00,WNW,290,11.0,22.0,82,0.00,,,-99.99,,2013-02-08 17:23:00,
2013-02-08 12:33:00,35.0,30.0,-100.00,WNW,290,6.0,19.0,82,0.00,,,-99.99,,2013-02-08 17:33:00,
2013-02-08 12:42:00,35.0,29.0,-100.00,WNW,300,11.0,21.0,80,0.00,,,-99.99,,2013-02-08 17:42:00,
2013-02-08 12:52:00,35.0,29.0,-100.00,WNW,295,8.0,18.0,79,0.00,,,-99.99,,2013-02-08 17:52:00,
2013-02-08 13:02:00,34.0,28.0,-100.00,West,275,8.0,19.0,77,0.00,,,-99.99,,2013-02-08 18:02:00,
2013-02-08 13:12:00,34.0,28.0,-100.00,WNW,295,9.0,21.0,76,0.00,,,-99.99,,2013-02-08 18:12:00,
2013-02-08 13:24:00,34.0,27.0,-100.00,WNW,290,8.0,16.0,75,0.00,,,-99.99,,2013-02-08 18:24:00,
2013-02-08 13:35:00,34.0,27.0,-100.00,WNW,285,9.0,16.0,75,0.00,,,-99.99,,2013-02-08 18:35:00,
2013-02-08 13:43:00,34.0,27.0,-100.00,WNW,300,9.0,23.0,73,0.00,,,-99.99,,2013-02-08 18:43:00,
2013-02-08 13:52:00,34.0,27.0,-100.00,WNW,290,9.0,19.0,74,0.00,,,-99.99,,2013-02-08 18:52:00,
2013-02-08 14:02:00,34.0,27.0,-100.00,WNW,290,7.0,13.0,74,0.00,,,-99.99,,2013-02-08 19:02:00,
2013-02-08 14:11:00,34.0,26.0,-100.00,NW,305,10.0,22.0,73,0.00,,,-99.99,,2013-02-08 19:11:00,
2013-02-08 14:22:00,34.0,26.0,-100.00,WNW,295,7.0,15.0,73,0.00,,,-99.99,,2013-02-08 19:22:00,
2013-02-08 14:32:00,34.0,26.0,-100.00,WNW,295,12.0,19.0,72,0.00,,,-99.99,,2013-02-08 19:32:00,
2013-02-08 14:42:00,34.0,26.0,-100.00,WNW,295,9.0,19.0,74,0.00,,,-99.99,,2013-02-08 19:42:00,
2013-02-08 14:52:00,34.0,27.0,-100.00,West,280,5.0,19.0,74,0.00,,,-99.99,,2013-02-08 19:52:00,
2013-02-08 15:02:00,34.0,26.0,-100.00,WNW,295,9.0,15.0,74,0.00,,,-99.99,,2013-02-08 20:02:00,
2013-02-08 15:11:00,33.0,26.0,-100.00,WNW,295,12.0,19.0,74,0.00,,,-99.99,,2013-02-08 20:11:00,
2013-02-08 15:22:00,33.0,26.0,-100.00,WNW,285,8.0,17.0,74,0.00,,,-99.99,,2013-02-08 20:22:00,
2013-02-08 15:32:00,33.0,26.0,-100.00,WNW,300,7.0,19.0,74,0.00,,,-99.99,,2013-02-08 20:32:00,
2013-02-08 15:42:00,33.0,26.0,-100.00,NNW,335,4.0,17.0,75,0.00,,,-99.99,,2013-02-08 20:42:00,
2013-02-08 15:52:00,33.0,26.0,-100.00,WNW,300,6.0,16.0,74,0.00,,,-99.99,,2013-02-08 20:52:00,
2013-02-08 16:02:00,33.0,27.0,-100.00,NW,315,2.0,12.0,76,0.00,,,-99.99,,2013-02-08 21:02:00,
2013-02-08 16:12:00,33.0,26.0,-100.00,WNW,295,7.0,14.0,75,0.00,,,-99.99,,2013-02-08 21:12:00,
2013-02-08 16:22:00,33.0,26.0,-100.00,WNW,295,9.0,16.0,74,0.00,,,-99.99,,2013-02-08 21:22:00,
2013-02-08 16:32:00,33.0,26.0,-100.00,NW,310,4.0,12.0,75,0.00,,,-99.99,,2013-02-08 21:32:00,
2013-02-08 16:42:00,33.0,25.0,-100.00,NW,305,7.0,14.0,73,0.00,,,-99.99,,2013-02-08 21:42:00,
2013-02-08 16:52:00,33.0,25.0,-100.00,NW,315,6.0,11.0,73,0.00,,,-99.99,,2013-02-08 21:52:00,
2013-02-08 17:02:00,32.0,25.0,-100.00,NW,310,6.0,17.0,74,0.00,,,-99.99,,2013-02-08 22:02:00,
2013-02-08 17:11:00,32.0,25.0,-100.00,WNW,295,6.0,9.0,74,0.00,,,-99.99,,2013-02-08 22:11:00,
2013-02-08 17:22:00,32.0,24.0,-100.00,NW,320,11.0,21.0,72,0.00,,,-99.99,,2013-02-08 22:22:00,
2013-02-08 17:32:00,32.0,25.0,-100.00,WNW,300,7.0,16.0,73,0.00,,,-99.99,,2013-02-08 22:32:00,
2013-02-08 17:42:00,32.0,25.0,-100.00,WNW,300,4.0,11.0,73,0.00,,,-99.99,,2013-02-08 22:42:00,
2013-02-08 17:52:00,32.0,24.0,-100.00,NW,310,9.0,16.0,71,0.00,,,-99.99,,2013-02-08 22:52:00,
2013-02-08 18:02:00,32.0,24.0,-100.00,WNW,300,6.0,15.0,71,0.00,,,-99.99,,2013-02-08 23:02:00,
2013-02-08 18:11:00,32.0,24.0,-100.00,NW,310,6.0,12.0,72,0.00,,,-99.99,,2013-02-08 23:11:00,
2013-02-08 18:21:00,31.0,24.0,-100.00,NNW,330,6.0,12.0,72,0.00,,,-99.99,,2013-02-08 23:21:00,
2013-02-08 18:32:00,31.0,23.0,-100.00,NNW,330,5.0,12.0,72,0.00,,,-99.99,,2013-02-08 23:32:00,
2013-02-08 18:42:00,31.0,24.0,-100.00,NW,325,3.0,14.0,72,0.00,,,-99.99,,2013-02-08 23:42:00,
2013-02-08 18:52:00,31.0,24.0,-100.00,NW,315,2.0,11.0,73,0.00,,,-99.99,,2013-02-08 23:52:00,
2013-02-08 19:02:00,31.0,23.0,-100.00,North,0,3.0,9.0,72,0.00,,,-99.99,,2013-02-09 00:02:00,
2013-02-08 19:11:00,31.0,23.0,-100.00,WNW,300,6.0,15.0,72,0.00,,,-99.99,,2013-02-09 00:11:00,
2013-02-08 19:22:00,30.0,22.0,-100.00,NW,305,9.0,19.0,71,0.00,,,-99.99,,2013-02-09 00:22:00,
2013-02-08 19:32:00,30.0,22.0,-100.00,NW,320,5.0,14.0,70,0.00,,,-99.99,,2013-02-09 00:32:00,
2013-02-08 19:42:00,30.0,22.0,-100.00,North,355,2.0,14.0,71,0.00,,,-99.99,,2013-02-09 00:42:00,
2013-02-08 19:52:00,30.0,22.0,-100.00,NNW,330,3.0,9.0,70,0.00,,,-99.99,,2013-02-09 00:52:00,
2013-02-08 20:02:00,30.0,22.0,-100.00,NNE,15,4.0,15.0,71,0.00,,,-99.99,,2013-02-09 01:02:00,
2013-02-08 20:11:00,30.0,22.0,-100.00,North,350,4.0,11.0,72,0.00,,,-99.99,,2013-02-09 01:11:00,
2013-02-08 20:22:00,30.0,22.0,-100.00,North,350,4.0,12.0,71,0.00,,,-99.99,,2013-02-09 01:22:00,
2013-02-08 20:32:00,30.0,22.0,-100.00,NW,315,7.0,14.0,71,0.00,,,-99.99,,2013-02-09 01:32:00,
2013-02-08 20:42:00,30.0,21.0,-100.00,North,0,3.0,12.0,70,0.00,,,-99.99,,2013-02-09 01:42:00,
2013-02-08 20:52:00,29.0,21.0,-100.00,NNW,330,1.0,9.0,71,0.00,,,-99.99,,2013-02-09 01:52:00,
2013-02-08 21:01:00,29.0,21.0,-100.00,North,0,4.0,12.0,71,0.00,,,-99.99,,2013-02-09 02:01:00,
2013-02-08 21:11:00,29.0,22.0,-100.00,NNE,25,2.0,9.0,73,0.00,,,-99.99,,2013-02-09 02:11:00,
2013-02-08 21:21:00,29.0,21.0,-100.00,NW,315,2.0,9.0,72,0.00,,,-99.99,,2013-02-09 02:21:00,
2013-02-08 21:32:00,29.0,21.0,-100.00,North,0,6.0,11.0,72,0.00,,,-99.99,,2013-02-09 02:32:00,
2013-02-08 21:42:00,28.0,20.0,-100.00,NW,320,8.0,16.0,71,0.00,,,-99.99,,2013-02-09 02:42:00,
2013-02-08 21:52:00,28.0,20.0,-100.00,NW,315,6.0,12.0,72,0.00,,,-99.99,,2013-02-09 02:52:00,
2013-02-08 22:02:00,28.0,20.0,-100.00,WNW,295,4.0,12.0,72,0.00,,,-99.99,,2013-02-09 03:02:00,
2013-02-08 22:11:00,28.0,20.0,-100.00,NW,305,13.0,19.0,70,0.00,,,-99.99,,2013-02-09 03:11:00,
2013-02-08 22:22:00,28.0,20.0,-100.00,North,0,4.0,17.0,70,0.00,,,-99.99,,2013-02-09 03:22:00,
2013-02-08 22:32:00,28.0,20.0,-100.00,NNE,30,2.0,10.0,70,0.00,,,-99.99,,2013-02-09 03:32:00,
2013-02-08 22:42:00,28.0,20.0,-100.00,NW,310,2.0,7.0,71,0.00,,,-99.99,,2013-02-09 03:42:00,
2013-02-08 22:52:00,28.0,20.0,-100.00,NNW,330,2.0,7.0,71,0.00,,,-99.99,,2013-02-09 03:52:00,
2013-02-08 23:03:00,28.0,20.0,-100.00,NW,315,3.0,11.0,72,0.00,,,-99.99,,2013-02-09 04:03:00,
2013-02-08 23:12:00,28.0,20.0,-100.00,WNW,300,2.0,9.0,72,0.00,,,-99.99,,2013-02-09 04:12:00,
2013-02-08 23:23:00,28.0,20.0,-100.00,WNW,300,9.0,14.0,71,0.00,,,-99.99,,2013-02-09 04:23:00,
2013-02-08 23:32:00,28.0,20.0,-100.00,WNW,290,4.0,12.0,71,0.00,,,-99.99,,2013-02-09 04:32:00,
2013-02-08 23:42:00,28.0,19.0,-100.00,NNW,335,3.0,9.0,69,0.00,,,-99.99,,2013-02-09 04:42:00,
2013-02-08 23:52:00,28.0,19.0,-100.00,NW,315,3.0,15.0,68,0.00,,,-99.99,,2013-02-09 04:52:00,